Tracking 30105 objects as of 24-Jan-2025
HD Live streaming from Space Station
objects crossing your sky now

ATLAS 5 CENTAUR DEB

Track ATLAS 5 CENTAUR DEB now!


NORAD ID: 44667
Int'l Code: 2018-079AD
Perigee: 8,210.2 km
Apogee: 33,955.9 km
Inclination: 12.9 °
Period: 754.5 minutes
Semi major axis: 27454 km
RCS: Unknown
Launch date: October 17, 2018
Source: United States (US)
Launch site: AIR FORCE EASTERN TEST RANGE (AFETR)

Note: This is SATELLITE DEBRIS
Your satellite tracking list
Your tracking list is empty




NASA's NSSDC Master Catalog

Two Line Element Set (TLE):
1 44667U 18079AD  25024.26385914 -.00000162  00000-0  00000-0 0  9993
2 44667  12.9409  62.2346 4688862 265.2802  41.6058  1.90850237  8450
Source of the keplerian elements: AFSPC